Showing default

TRANSIT 5B-1, 670

Orbit data source: Space-Track

TRANSIT 5B-1, 670 is a payload satellite owned by USN BuWeps (US) in LEO that was launched on Sat, 28 Sep 1963 UTC via a THOR ABLESTAR launch vehicle from the Air Force Western Test Range (AFWTR). Payload-class satellites include a variety of spacecraft equipped with specific instruments for various scientific and technological missions. These include communications satellites like Starlink; space stations such as the ISS; scientific satellites like the Hubble; Earth observation satellites from companies like Planet Labs, Umbra, and HawkEye 360; GPS; miniature CubeSats for education and research; and military/defense satellites.

Loading next visibility...
Identifier
670, 1963-038B
Orbit
LEO
Country
Flag of USUS
Related business
Manufacturer
APL
Mission
Spacecraft
Bus & Motor
TRANSIT 5, Unknown motor
Mass
69 kg wet, 69 kg dry
Launch date (UTC)
1963-09-28 (63 years ago)
Launch vehicle
THOR ABLESTAR
Launch site
Air Force Western Test Range (AFWTR)
Object type
Payload
Rocket body
Debris
Shape & HBR
OCT CYL + ANT, 1.1 m
Radar Cross Section
Large (>1 m²)

Expand to show TLE details & history
Last TLE update: 8 hours ago

TLE from 8 hours ago
0 TRANSIT 5B-1
1   670U 63038B   26254.69024412  .00000054  00000-0  74877-4 0  9996
2   670  89.9670 332.5991 0042808 144.6880 215.7117 13.44690008 85810
Epoch: 2026-09-11T16:33Z
TLE epoch observation values (Epoch: 2026-09-11T16:33:57.091Z)
Latitude
-0.00002°
Longitude
93.40124°
Altitude
1,120.822 km
Speed
7.279 km/s
True Right ascension
22h 10m 23s
True Declination
0° 00' 00"
Sunlit
Object was in full shadow at epoch
Visualization orbit readout
Latitude
Unknown
Longitude
Unknown
Altitude
Unknown
Speed
Unknown
Apparent Right ascension
Unknown
Apparent Declination
Unknown
Sunlit
N/A
Visualization observer readout
Local Sidereal Time
16:29:55
Azimuth
Unknown
Elevation
Unknown
Doppler factor
Unknown
Orbital elements
Apogee altitude
1,120.882 km
Perigee altitude
1,056.952 km
Semi-major axis
7,467.054 km
Eccentricity
0.00428
Inclination
89.967°
RAAN
332.5991°
Arg. of periapsis
144.688°
True anomaly
215.42661°
Mean anomaly
215.7117°
Eccentric anomaly
215.56903°
Mean motion
3.36372 °/min
Orbital period
107.02 mins
BSTAR
0.000074877
Loading maneuver chart data...
Computing Atmospheric mass density...

Documentation

Showing up to 5 results
|